Погода в Чаттануге

США     35°02′44″N   85°18′33″W
темп.,
°C
ветер,
м/с
пор.,
м/с
влажн.,
%
обл.,
%
осадки,
мм/ч
давл.,
гПа
погр.,
м
26 июня, вс
вс2623:00+23сз009195 0.0 101911
02:00+22ююз1191100 0.0 101811
05:00+20ююз11915 0.0 101913
08:00+22ююв13855 0.0 1020116
11:00+29ю24505 0.0 1020804
14:00+33ююз333625 0.0 10182020
17:00+32зсз234692 0.0 10161448
20:00+28зюз116877 0.0 101512
27 июня, пн
пн2723:00+24зсз2479100 0.3 1017182
02:00+20с2398100 5.4 1019120
05:00+20ссз1298100 1.9 101873
08:00+21ссз1197100 1.9 101960
11:00+26с236985 0.0 1019906
14:00+27ссз336495 0.1 10181092
17:00+28ссв465895 0.2 10171471
20:00+25св486818 0.3 1018590
28 июня, вт
вт2823:00+20с3876100 0.0 1020292
02:00+18ссв286670 0.0 1020267
05:00+18ссв31061100 0.0 1020378
08:00+18ссв3769100 0.0 1022351
11:00+20ссв346398 0.0 1022388
14:00+24ссв225786 0.0 1022793
17:00+26ссв216598 0.4 1020603
20:00+22св2381100 0.4 102093
29 июня, ср
ср2923:00+21юв1181100 0.1 102111
02:00+21ю118791 0.1 102243
05:00+19ююв129796 0.0 102241
08:00+21ююв139196 0.0 1023202
11:00+23ююв2380100 0.1 1024793
14:00+28ююв226244 0.3 10231105
17:00+27ююв226960 0.8 1022822
20:00+25ююв118621 1.9 102218
30 июня, чт
чт3023:00+21ю11950 1.1 102321
02:00+20ююв11960 1.4 102312
05:00+19юв119819 0.3 102311
08:00+21юв019528 0.3 1024101
11:00+27ююв236735 0.0 1023955
14:00+27ююз347690 1.9 1022978
17:00+27ююз1378100 3.3 1021500
20:00+25всв1187100 4.7 102129